COSMOS 2251 DEB, 34790

Orbit data source: Space-Track

COSMOS 2251 DEB, 34790 is space debris in LEO originally from a launch on Wed, 16 Jun 1993 UTC launched from the Plesetsk Missile And Space Complex (PKMTR). The debris from Iridium 33, an American commercial communications satellite, has been tracked extensively since its accidental collision with the defunct Russian satellite Cosmos 2251 in 2009. This event, occurring at high speed in low Earth orbit (LEO), generated thousands of pieces of space debris, significantly increasing the risk of further collisions. The Iridium 33 debris cloud has impacted space traffic management and orbital debris mitigation strategies, making it a subject of ongoing study in space situational awareness.

Loading next visibility...
Identifier
34790, 1993-036AAT
Orbit
LEO
Country
Flag of CISCIS
Related business
Manufacturer
Unknown
Mission
Spacecraft
Bus & Motor
Unknown
Mass
Unknown
Launch date (UTC)
1993-06-16 (33 years ago)
Launch vehicle
Unknown
Launch site
Plesetsk Missile And Space Complex (PKMTR)
Object type
Payload
Rocket body
Debris
Shape & HBR
Unknown shape, 0.1 m
Radar Cross Section
Small (<0.1 m²)

Expand to show TLE details & history
Last TLE update: 2 days ago

TLE from 2 days ago
0 COSMOS 2251 DEB
1 34790U 93036AAT 26119.69881053  .00001479  00000-0  60898-3 0  9998
2 34790  74.0548 355.2054 0098855  24.4717  32.7698 14.25139724885382
Epoch: 2026-04-29T16:46Z
TLE epoch observation values (Epoch: 2026-04-29T16:46:17.229Z)
Latitude
54.61568°
Longitude
-90.43704°
Altitude
757.153 km
Speed
7.512 km/s
True Right ascension
01h 15m 09s
True Declination
54° 27' 11"
Sunlit
Object was in daylight at epoch
Visualization orbit readout
Latitude
Unknown
Longitude
Unknown
Altitude
Unknown
Speed
Unknown
Apparent Right ascension
Unknown
Apparent Declination
Unknown
Sunlit
N/A
Visualization observer readout
Local Sidereal Time
18:31:30
Azimuth
Unknown
Elevation
Unknown
Doppler factor
Unknown
Orbital elements
Apogee altitude
876.672 km
Perigee altitude
734.642 km
Semi-major axis
7,183.794 km
Eccentricity
0.00989
Inclination
74.0548°
RAAN
355.2054°
Arg. of periapsis
24.4717°
True anomaly
33.38937°
Mean anomaly
32.7698°
Eccentric anomaly
33.07894°
Mean motion
3.56461 °/min
Orbital period
100.99 mins
BSTAR
0.00060898
Loading maneuver chart data...
Computing Atmospheric mass density...

Documentation

Showing up to 5 results
|